TimePDT,TemperatureF,Dew PointF,Humidity,Sea Level PressureIn,VisibilityMPH,Wind Direction,Wind SpeedMPH,Gust SpeedMPH,PrecipitationIn,Events,Conditions,WindDirDegrees,DateUTC
12:15 AM,50.0,30.2,47,30.07,10.0,WNW,3.5,-,N/A,,Clear,300,2013-06-03 07:15:00
12:35 AM,50.0,32.0,50,30.07,10.0,WSW,4.6,-,N/A,,Clear,240,2013-06-03 07:35:00
12:55 AM,51.8,32.0,47,30.07,10.0,WNW,4.6,-,N/A,,Clear,300,2013-06-03 07:55:00
1:15 AM,50.0,32.0,50,30.06,10.0,Calm,Calm,-,N/A,,Clear,0,2013-06-03 08:15:00
1:35 AM,53.6,32.0,44,30.06,10.0,West,6.9,-,N/A,,Clear,270,2013-06-03 08:35:00
1:55 AM,53.6,32.0,44,30.06,10.0,Calm,Calm,-,N/A,,Clear,0,2013-06-03 08:55:00
2:15 AM,50.0,32.0,50,30.06,10.0,Calm,Calm,-,N/A,,Clear,0,2013-06-03 09:15:00
2:35 AM,51.8,33.8,50,30.06,10.0,WNW,5.8,-,N/A,,Clear,290,2013-06-03 09:35:00
2:55 AM,50.0,32.0,50,30.06,10.0,West,5.8,-,N/A,,Clear,270,2013-06-03 09:55:00
3:15 AM,51.8,32.0,47,30.06,10.0,Calm,Calm,-,N/A,,Clear,0,2013-06-03 10:15:00
3:35 AM,50.0,32.0,50,30.06,10.0,West,12.7,-,N/A,,Clear,280,2013-06-03 10:35:00
3:55 AM,53.6,32.0,44,30.07,10.0,West,12.7,-,N/A,,Clear,260,2013-06-03 10:55:00
4:15 AM,51.8,33.8,50,30.07,10.0,West,12.7,-,N/A,,Clear,270,2013-06-03 11:15:00
4:35 AM,50.0,32.0,50,30.07,10.0,West,11.5,-,N/A,,Clear,270,2013-06-03 11:35:00
4:55 AM,50.0,32.0,50,30.07,10.0,West,8.1,-,N/A,,Clear,270,2013-06-03 11:55:00
5:15 AM,48.2,32.0,54,30.08,10.0,WNW,5.8,-,N/A,,Clear,290,2013-06-03 12:15:00
5:35 AM,48.2,33.8,58,30.08,10.0,West,9.2,-,N/A,,Clear,270,2013-06-03 12:35:00
5:55 AM,48.2,33.8,58,30.09,10.0,West,10.4,-,N/A,,Clear,270,2013-06-03 12:55:00
6:15 AM,46.4,33.8,62,30.09,10.0,West,6.9,-,N/A,,Clear,270,2013-06-03 13:15:00
6:35 AM,50.0,33.8,54,30.09,10.0,West,10.4,-,N/A,,Clear,280,2013-06-03 13:35:00
6:55 AM,55.4,33.8,44,30.10,10.0,WNW,11.5,-,N/A,,Clear,290,2013-06-03 13:55:00
7:15 AM,57.2,32.0,38,30.11,10.0,West,12.7,-,N/A,,Clear,280,2013-06-03 14:15:00
7:35 AM,59.0,32.0,36,30.11,10.0,WNW,15.0,18.4,N/A,,Clear,290,2013-06-03 14:35:00
7:55 AM,60.8,32.0,34,30.12,10.0,West,15.0,20.7,N/A,,Clear,280,2013-06-03 14:55:00
8:15 AM,62.6,32.0,32,30.12,10.0,WNW,10.4,20.7,N/A,,Clear,290,2013-06-03 15:15:00
8:35 AM,62.6,32.0,32,30.12,10.0,West,12.7,20.7,N/A,,Clear,280,2013-06-03 15:35:00
8:55 AM,64.4,32.0,30,30.12,10.0,WNW,8.1,20.7,N/A,,Clear,290,2013-06-03 15:55:00
9:15 AM,66.2,32.0,28,30.12,10.0,NW,3.5,16.1,N/A,,Clear,310,2013-06-03 16:15:00
9:35 AM,66.2,32.0,28,30.11,10.0,West,3.5,-,N/A,,Clear,270,2013-06-03 16:35:00
9:55 AM,68.0,32.0,26,30.11,10.0,North,5.8,-,N/A,,Clear,350,2013-06-03 16:55:00
10:15 AM,69.8,32.0,25,30.11,10.0,ENE,5.8,-,N/A,,Clear,70,2013-06-03 17:15:00
10:35 AM,69.8,32.0,25,30.11,10.0,Calm,Calm,-,N/A,,Clear,0,2013-06-03 17:35:00
10:55 AM,71.6,32.0,23,30.11,10.0,West,4.6,-,N/A,,Clear,260,2013-06-03 17:55:00
11:15 AM,71.6,30.2,22,30.11,10.0,East,4.6,-,N/A,,Clear,80,2013-06-03 18:15:00
11:35 AM,73.4,32.0,22,30.11,10.0,ESE,6.9,-,N/A,,Clear,120,2013-06-03 18:35:00
11:55 AM,75.2,32.0,21,30.11,10.0,East,5.8,-,N/A,,Clear,100,2013-06-03 18:55:00
12:15 PM,75.2,30.2,19,30.10,10.0,East,10.4,-,N/A,,Clear,80,2013-06-03 19:15:00
12:35 PM,77.0,28.4,17,30.09,10.0,ESE,9.2,16.1,N/A,,Clear,120,2013-06-03 19:35:00
12:55 PM,77.0,28.4,17,30.09,10.0,SE,9.2,-,N/A,,Clear,140,2013-06-03 19:55:00
1:15 PM,78.8,28.4,16,30.08,10.0,SE,10.4,19.6,N/A,,Clear,130,2013-06-03 20:15:00
1:35 PM,77.0,28.4,17,30.08,10.0,East,6.9,18.4,N/A,,Clear,80,2013-06-03 20:35:00
1:55 PM,78.8,28.4,16,30.08,10.0,Calm,Calm,-,N/A,,Clear,0,2013-06-03 20:55:00
2:15 PM,78.8,28.4,16,30.07,10.0,SE,9.2,-,N/A,,Clear,130,2013-06-03 21:15:00
2:35 PM,80.6,28.4,15,30.08,10.0,ESE,8.1,18.4,N/A,,Clear,110,2013-06-03 21:35:00
2:55 PM,80.6,30.2,16,30.06,10.0,ESE,10.4,16.1,N/A,,Clear,120,2013-06-03 21:55:00
3:15 PM,78.8,28.4,16,30.06,10.0,East,4.6,-,N/A,,Clear,100,2013-06-03 22:15:00
3:35 PM,78.8,28.4,16,30.06,10.0,SE,10.4,-,N/A,,Clear,140,2013-06-03 22:35:00
3:55 PM,75.2,28.4,18,30.06,10.0,South,5.8,-,N/A,,Clear,180,2013-06-03 22:55:00
4:15 PM,75.2,30.2,19,30.06,10.0,SSE,5.8,-,N/A,,Scattered Clouds,160,2013-06-03 23:15:00
4:35 PM,75.2,26.6,17,30.06,10.0,SW,13.8,28.8,N/A,,Scattered Clouds,220,2013-06-03 23:35:00
4:55 PM,73.4,24.8,16,30.06,10.0,SSW,15.0,26.5,N/A,,Clear,210,2013-06-03 23:55:00
5:15 PM,73.4,24.8,16,30.07,10.0,South,15.0,28.8,N/A,,Mostly Cloudy,190,2013-06-04 00:15:00
5:35 PM,71.6,30.2,22,30.11,10.0,North,11.5,20.7,N/A,,Overcast,350,2013-06-04 00:35:00
5:55 PM,68.0,33.8,28,30.11,10.0,NNW,11.5,-,N/A,,Overcast,330,2013-06-04 00:55:00
6:15 PM,60.8,48.2,63,30.11,10.0,WSW,12.7,18.4,0.02,Rain,Light Rain,250,2013-06-04 01:15:00
6:35 PM,60.8,44.6,55,30.11,10.0,WNW,16.1,24.2,0.02,,Mostly Cloudy,290,2013-06-04 01:35:00
6:55 PM,64.4,33.8,32,30.11,10.0,WNW,11.5,29.9,0.02,,Scattered Clouds,300,2013-06-04 01:55:00
7:15 PM,62.6,37.4,39,30.15,10.0,WSW,10.4,21.9,N/A,,Scattered Clouds,250,2013-06-04 02:15:00
7:35 PM,62.6,37.4,39,30.16,10.0,West,16.1,-,N/A,,Mostly Cloudy,280,2013-06-04 02:35:00
7:55 PM,62.6,35.6,37,30.15,10.0,NW,8.1,-,N/A,,Overcast,320,2013-06-04 02:55:00
8:15 PM,60.8,35.6,39,30.16,10.0,NW,6.9,-,N/A,,Overcast,320,2013-06-04 03:15:00
8:35 PM,60.8,41.0,48,30.15,10.0,SSW,5.8,-,N/A,,Scattered Clouds,200,2013-06-04 03:35:00
8:55 PM,59.0,39.2,48,30.13,10.0,SSW,13.8,20.7,N/A,,Clear,210,2013-06-04 03:55:00
9:15 PM,59.0,39.2,48,30.13,10.0,West,3.5,-,N/A,,Clear,270,2013-06-04 04:15:00
9:35 PM,59.0,37.4,45,30.14,10.0,West,5.8,-,N/A,,Clear,270,2013-06-04 04:35:00
9:55 PM,57.2,37.4,48,30.14,10.0,West,4.6,-,N/A,,Clear,260,2013-06-04 04:55:00
10:15 PM,57.2,37.4,48,30.14,10.0,Calm,Calm,-,N/A,,Clear,0,2013-06-04 05:15:00
10:35 PM,55.4,37.4,51,30.14,10.0,Calm,Calm,-,N/A,,Clear,0,2013-06-04 05:35:00
10:55 PM,53.6,39.2,58,30.14,10.0,Calm,Calm,-,N/A,,Clear,0,2013-06-04 05:55:00
11:15 PM,55.4,37.4,51,30.15,10.0,Calm,Calm,-,N/A,,Clear,0,2013-06-04 06:15:00
11:35 PM,51.8,35.6,54,30.15,10.0,West,8.1,-,N/A,,Clear,280,2013-06-04 06:35:00
11:55 PM,50.0,35.6,58,30.15,10.0,Calm,Calm,-,N/A,,Clear,0,2013-06-04 06:55:00